Los Alamitos, CA

1:56 AM PST on February 25, 2018 (GMT -0800)
Los Alamitos Army Air Field

Weather History for KSLI - September, 2013

Change the Weather History Date:

Monday, September 23, 2013

  Actual Average Record
Temperature  
Mean Temperature 72 °F -  
Max Temperature 91 °F 77 °F 93 °F (1997)
Min Temperature 55 °F 63 °F 53 °F (2010)
Cooling Degree Days 8    
Growing Degree Days 22 (Base 50)    
Moisture  
Dew Point 51 °F    
Average Humidity 58    
Maximum Humidity 100    
Minimum Humidity 17    
Precipitation  
Precipitation 0.00 in - - ()
Sea Level Pressure  
Sea Level Pressure 29.84 in    
Wind  
Wind Speed 3 mph (SW)    
Max Wind Speed 13 mph    
Max Gust Speed -    
Visibility 10 miles    
Events      
Averages and records for this station are not official NWS values.
T = Trace of Precipitation, MM = Missing Value Source: NWS Daily Summary

Daily Weather History Graph

Daily Weather History Graph

Search for Another Location

Airport or City:

Trip Planner

Search our weather history database for the weather conditions in past years. The results will help you decide how hot, cold, wet, or windy it might be!

Date:

Astronomy

Sep. 23, 2013 Rise Set
Actual Time 6:41 AM PDT 6:47 PM PDT
Civil Twilight 6:16 AM PDT 7:11 PM PDT
Nautical Twilight 5:47 AM PDT 7:40 PM PDT
Astronomical Twilight 5:17 AM PDT 8:10 PM PDT
Moon 9:36 PM PDT (9/23) 10:51 AM PDT (9/23)
Length of Visible Light 12h 55m
Length of Day
12h 05m
Waning Gibbous, 80% of the Moon is Illuminated
Sep 23
Waning Gibbous
Sep 26
Last Quarter
Oct 4
New
Oct 11
First Quarter
Oct 18
Full

Hourly Weather History & Observations

Time (PDT) Temp. Dew Point Humidity Pressure Visibility Wind Dir Wind Speed Gust Speed Precip Events Conditions
12:58 AM 59.5 °F 59.5 °F 100% 29.83 in 10.0 mi NNE 3.5 mph - N/A   Clear
1:58 AM 58.3 °F 58.3 °F 100% 29.83 in 10.0 mi Calm Calm - N/A   Clear
2:58 AM 58.6 °F 58.6 °F 100% 29.82 in 10.0 mi Calm Calm - N/A   Clear
3:58 AM 56.3 °F 56.3 °F 100% 29.82 in 10.0 mi WNW 2.3 mph - N/A   Clear
4:58 AM 56.8 °F 56.7 °F 99% 29.82 in 10.0 mi NNW 2.3 mph - N/A   Clear
5:58 AM 56.8 °F 55.2 °F 94% 29.81 in 10.0 mi ENE 2.3 mph - N/A   Clear
6:58 AM 55.6 °F 55.4 °F 99% 29.83 in 10.0 mi Calm Calm - N/A   Clear
7:58 AM 63.1 °F 54.3 °F 73% 29.85 in 10.0 mi NW 2.3 mph - N/A   Clear
8:58 AM 70.0 °F 47.5 °F 45% 29.86 in 10.0 mi Variable 2.3 mph - N/A   Clear
9:55 AM 74.5 °F 46.6 °F 37% 29.87 in 10.0 mi Calm Calm - N/A   Clear
10:55 AM 80.8 °F 46.4 °F 30% 29.87 in 10.0 mi Calm Calm - N/A   Clear
11:55 AM 86.2 °F 39.9 °F 20% 29.86 in 10.0 mi West 4.6 mph - N/A   Clear
12:55 PM 89.6 °F 39.0 °F 17% 29.85 in 10.0 mi Calm Calm - N/A   Clear
1:55 PM 88.2 °F 50.7 °F 28% 29.83 in 10.0 mi SSW 10.4 mph - N/A   Clear
2:55 PM 90.3 °F 48.4 °F 24% 29.82 in 10.0 mi SSW 9.2 mph - N/A   Clear
3:58 PM 88.9 °F 45.3 °F 22% 29.81 in 10.0 mi SSW 12.7 mph - N/A   Clear
4:58 PM 84.9 °F 45.9 °F 26% 29.81 in 10.0 mi SSW 6.9 mph - N/A   Clear
5:58 PM 82.8 °F 45.1 °F 27% 29.82 in 10.0 mi Variable 2.3 mph - N/A   Clear
6:58 PM 78.8 °F 40.6 °F 26% 29.83 in 10.0 mi NW 5.8 mph - N/A   Clear
7:58 PM 73.9 °F 43.3 °F 33% 29.86 in 10.0 mi West 3.5 mph - N/A   Clear
8:58 PM 70.9 °F 46.9 °F 42% 29.88 in 10.0 mi South 3.5 mph - N/A   Clear
9:58 PM 68.5 °F 55.0 °F 62% 29.88 in 10.0 mi SSE 4.6 mph - N/A   Clear
10:58 PM 66.4 °F 66.4 °F 100% 29.89 in 10.0 mi SE 3.5 mph - N/A   Clear
11:58 PM 66.0 °F 66.0 °F 100% 29.89 in 10.0 mi ESE 3.5 mph - N/A   Clear